Powrót do katalogu

CZ-3B DEB

LostGTO
NORAD 40186·DEBRIS·🇨🇳 China

Wystrzelony Dec 19, 2011 z Xichang Satellite Launch Center

Loading…

TLE

NieaktualneSource: Space-Track

Epoka: Jun 19, 2026, 06:43 UTC

1 40186U 11077K   26170.28003463 -.00000089  00000-0  00000-0 0  9995
2 40186  25.7716  85.1422 7292687 253.5779 330.6171  1.88718867 99159

Śledź CZ-3B DEB w czasie rzeczywistym z AllMySat

Download on the App Store